Torna al catalogo

STARLINK-31910

AttivoComunicazioniVLEO
NORAD 59664·PAYLOAD·🇺🇸 United States

Lanciato May 6, 2024 da Cape Canaveral Space Force Station

Loading…

Prossimi Passaggi (prossime 24 ore)

TLE

AggiornatoSource: CelesTrak SupGP

Epoca: Sep 14, 2026, 21:14 UTC

1 59664C 24084L   26257.88520833  .00054944  00000+0  19908-2 0  2578
2 59664  43.0031  53.0948 0001592 278.0374 335.5468 15.27539025    14

Traccia STARLINK-31910 in tempo reale con AllMySat

Download on the App Store